Weather History for Livingston, MT

Change the Weather History Date:

Monday, November 19, 2012

  Actual Average Record
Temperature  
Mean Temperature 46 °F 32 °F  
Max Temperature 55 °F 42 °F 61 °F (2002)
Min Temperature 37 °F 23 °F -7 °F (1978)
Degree Days  
Heating Degree Days 19 33  
Month to date heating degree days 548  
Since 1 July heating degree days 1576  
Moisture  
Dew Point 27 °F    
Average Humidity 44    
Maximum Humidity 55    
Minimum Humidity 33    
Precipitation  
Precipitation 0.00 in 0.02 in 0.32 in (1967)
Month to date precipitation 0.37  
Year to date precipitation 14.07  
Sea Level Pressure  
Sea Level Pressure 29.98 in    
Wind  
Wind Speed 22 mph (SW)    
Max Wind Speed 40 mph    
Max Gust Speed 56 mph    
Visibility 10 miles    
Events      
T = Trace of Precipitation, MM = Missing Value Source: NWS Daily Summary

Daily Weather History Graph

Daily Weather History Graph

Search for Another Location

Airport:

Trip Planner

Search our weather history database for the weather conditions in past years. The results will help you decide how hot, cold, wet, or windy it might be!

Date:

Astronomy

Nov. 19, 2012 Rise Set
Actual Time 7:27 AM MST 4:46 PM MST
Civil Twilight 6:54 AM MST 5:19 PM MST
Nautical Twilight 6:18 AM MST 5:55 PM MST
Astronomical Twilight 5:43 AM MST 6:30 PM MST
Moon 12:25 PM MST (11/19) 11:26 PM MST (11/19)
Length of Visible Light 10h 24m
Length of Day
9h 18m
Waxing Crescent, 41% of the Moon is Illuminated
Nov 19
Waxing Crescent
Nov 20
First Quarter
Nov 28
Full
Dec 6
Last Quarter
Dec 13
New

Hourly Weather History & Observations

Time (MST) Temp. Windchill Dew Point Humidity Pressure Visibility Wind Dir Wind Speed Gust Speed Precip Events Conditions
12:53 AM 37.9 °F 34.4 °F 23.0 °F 55% 30.03 in - WSW 4.6 mph - N/A   Clear
1:53 AM 41.0 °F 32.8 °F 24.1 °F 51% 30.02 in - SW 16.1 mph - N/A   Clear
2:53 AM 41.0 °F 31.4 °F 23.0 °F 49% 30.02 in - SW 21.9 mph 28.8 mph N/A   Clear
3:53 AM 41.0 °F 32.2 °F 23.0 °F 49% 30.02 in - WSW 18.4 mph 27.6 mph N/A   Clear
5:53 AM 42.1 °F 34.2 °F 25.0 °F 51% 30.00 in - SW 16.1 mph 21.9 mph N/A   Clear
6:53 AM 42.1 °F 34.5 °F 26.1 °F 53% 30.01 in - WSW 15.0 mph 21.9 mph N/A   Clear
7:53 AM 43.0 °F 34.8 °F 26.1 °F 51% 30.02 in 10.0 mi SW 18.4 mph 25.3 mph N/A   Clear
8:53 AM 46.9 °F - 27.0 °F 46% 30.01 in 10.0 mi SW 21.9 mph 40.3 mph N/A   Clear
9:53 AM 50.0 °F - 28.0 °F 43% 30.03 in 10.0 mi SW 26.5 mph 42.6 mph N/A   Clear
10:53 AM 53.1 °F - 27.0 °F 37% 29.99 in - SSW 40.3 mph 54.1 mph N/A   Clear
12:53 PM 54.0 °F - 26.1 °F 34% 29.97 in 10.0 mi SSW 39.1 mph 49.5 mph N/A   Clear
1:53 PM 55.0 °F - 26.1 °F 33% 29.96 in 10.0 mi SW 36.8 mph 48.3 mph N/A   Clear
2:53 PM 54.0 °F - 27.0 °F 35% 29.96 in 10.0 mi SW 27.6 mph 46.0 mph N/A   Clear
3:53 PM 52.0 °F - 27.0 °F 38% 29.98 in 10.0 mi SW 36.8 mph 44.9 mph N/A   Clear
4:53 PM 51.1 °F - 27.0 °F 39% 29.98 in 10.0 mi SW 31.1 mph 48.3 mph N/A   Clear
5:53 PM 51.1 °F - 28.0 °F 41% 29.96 in 10.0 mi SSW 35.7 mph 46.0 mph N/A   Clear
6:53 PM 51.1 °F - 28.0 °F 41% 29.97 in 10.0 mi SW 27.6 mph 44.9 mph N/A   Clear
7:53 PM 51.1 °F - 28.9 °F 43% 29.97 in 10.0 mi SW 28.8 mph 42.6 mph N/A   Clear
8:53 PM 51.1 °F - 28.9 °F 43% 29.93 in 10.0 mi WSW 31.1 mph 41.4 mph N/A   Partly Cloudy
9:53 PM 51.1 °F - 30.0 °F 44% 29.90 in 10.0 mi WSW 32.2 mph 43.7 mph N/A   Clear
10:53 PM 53.1 °F - 30.0 °F 41% 29.87 in 10.0 mi SW 27.6 mph 56.4 mph N/A   Clear
11:53 PM 53.1 °F - 30.0 °F 41% 29.86 in 10.0 mi SW 39.1 mph 55.2 mph N/A   Clear